MPEC 2004-D33 : 2004 DV24

The following Minor Planet Electronic Circular may be linked-to from your own Web pages, but must not otherwise be redistributed electronically.


Read MPEC 2004-D32 Read MPEC 2004-D34


M.P.E.C. 2004-D33                                Issued 2004 Feb. 23, 19:57 UT

     The Minor Planet Electronic Circulars contain information on unusual
         minor planets and routine data on comets.  They are published
   on behalf of Commission 20 of the International Astronomical Union by the
          Minor Planet Center, Smithsonian Astrophysical Observatory,
                          Cambridge, MA 02138, U.S.A.

         Supported in part by the Steven and Michele Kirsch Foundation
             Prepared using the Tamkin Foundation Computer Network

                              MPC@CFA.HARVARD.EDU
          URL http://cfa-www.harvard.edu/iau/mpc.html  ISSN 1523-6714

                                   2004 DV24

Observations:
     K04D24V* C2004 02 21.49152 11 08 00.16 -20 48 14.2          18.9   ED033608
     K04D24V  C2004 02 21.50194 11 07 58.98 -20 47 48.2          18.8   ED033608
     K04D24V  C2004 02 21.51296 11 07 57.71 -20 47 21.4          19.1   ED033608
     K04D24V  C2004 02 21.90166 11 07 15.16 -20 31 30.4          18.6 V ED033A50
     K04D24V  C2004 02 21.90516 11 07 14.70 -20 31 21.7          18.5 V ED033A50
     K04D24V  C2004 02 21.90866 11 07 14.08 -20 31 10.7          17.9 V ED033A50
     K04D24V  C2004 02 21.91216 11 07 13.81 -20 31 05.6                 ED033A50
     K04D24V  C2004 02 21.97308 11 07 07.29 -20 28 32.2          18.2 R ED033493
     K04D24V  C2004 02 21.97402 11 07 07.23 -20 28 30.2                 ED033493
     K04D24V  C2004 02 21.97503 11 07 07.05 -20 28 27.4                 ED033493
     K04D24V  C2004 02 23.02766 11 05 09.57 -19 44 27.9          18.5 R ED033620
     K04D24V  C2004 02 23.03493 11 05 08.73 -19 44 09.6          18.7 R ED033620
     K04D24V  C2004 02 23.04215 11 05 07.91 -19 43 51.0          18.3 R ED033620
     K04D24V  C2004 02 23.26888 11 04 42.50 -19 34 11.7          18.1 R ED033785
     K04D24V  C2004 02 23.27708 11 04 41.56 -19 33 52.2          18.2 R ED033785
     K04D24V  C2004 02 23.28610 11 04 40.50 -19 33 30.9          18.3 R ED033785
     K04D24V  C2004 02 23.30428 11 04 38.39 -19 32 43.9          18.3 R ED033785
     K04D24V  C2004 02 23.41672 11 04 26.07 -19 27 50.7          19.4   ED033608
     K04D24V  C2004 02 23.42829 11 04 24.73 -19 27 20.6          18.7   ED033608
     K04D24V  C2004 02 23.43947 11 04 23.49 -19 26 52.3          19.8   ED033608

Observer details:
493 Calar Alto.  Observers M. Buchmann, M. Busch, F. Hormuth.  1.52-m
    reflector + CCD.
608 Haleakala-NEAT/MSSS.  Observers S. Pravdo, M. Hicks, K. Lawrence,
    D. MacDonald, P. Kervin, J. Africano, R. Maeda.  1.2-m reflector + CCD.
620 Observatorio Astronomico de Mallorca.  Observers S. Sanchez, R. Stoss,
    J. Nomen.  0.30-m f/9 Schmidt-Cassegrain + CCD.
785 Fitz-Randolph Observatory, Princeton.  Observer J. Maffei.  0.91-m f/13.6
    Cassegrain + CCD.
A50 Andrushivka Astronomical Observatory.  Observers G. Kovalchuk,
    Y. Ivashchenko, O. Gerashchenko, V. Lokot.  0.6-m reflector + CCD.

Orbital elements:
2004 DV24                                                            PHA 0.038D
Epoch 2004 Feb. 5.0 TT = JDT 2453040.5                  MPC
M 139.65848              (2000.0)            P               Q
n   0.57269719     Peri.  184.41459     +0.99118174     +0.00920675
a   1.4361044      Node   170.94307     -0.08041841     +0.83466126
e   0.2779993      Incl.   57.11328     -0.10531681     -0.55068667
P   1.72           H   16.7           G   0.15
From 14 observations 2004 Feb. 21-23.

Ephemeris:
2004 DV24                a,e,i = 1.44, 0.28, 57                  q = 1.0369
Date    TT    R. A. (2000) Decl.     Delta      r     Elong.  Phase     V
2004 02 15    11 19.28   -24 47.4    0.940    1.791   136.6    22.3    18.9
2004 02 25    11 01.44   -18 18.6    0.873    1.804   151.2    15.3    18.5
2004 03 06    10 42.17   -10 10.0    0.843    1.815   163.0     9.2    18.2
2004 03 16    10 24.28   -01 21.4    0.858    1.824   159.8    10.9    18.4
2004 03 26    10 10.08   +06 51.0    0.915    1.830   146.2    17.7    18.7
2004 04 05    10 00.80   +13 37.0    1.007    1.834   132.0    23.9    19.2
2004 04 15    09 56.53   +18 46.6    1.122    1.835   119.3    28.5    19.5
2004 04 25    09 56.81   +22 32.1    1.251    1.834   108.2    31.4    19.8
2004 05 05    10 00.93   +25 11.6    1.386    1.831    98.5    33.0    20.1
2004 05 15    10 08.17   +27 01.4    1.520    1.825    89.9    33.6    20.3
2004 05 25    10 17.95   +28 13.6    1.650    1.816    82.3    33.5    20.5
2004 06 04    10 29.78   +28 57.1    1.772    1.805    75.3    32.9    20.6
2004 06 14    10 43.27   +29 18.4    1.883    1.792    69.1    32.0    20.7
2004 06 24    10 58.18   +29 21.6    1.982    1.776    63.4    30.8    20.8

Kyle E. Smalley              (C) Copyright 2004 MPC           M.P.E.C. 2004-D33

Read MPEC 2004-D32 Read MPEC 2004-D34


Our Web policy. Index to the CBAT/MPC/ICQ pages.

MPC